Tracking 18980 objects as of 21-Feb-2018
HD Live streaming from Space Station
objects crossing your sky now

FENGYUN 1C DEB

Track FENGYUN 1C DEB now!
10-day predictions


NORAD ID: 31185
Int'l Code: 1999-025BJP
Perigee: 864.2 km
Apogee: 925.4 km
Inclination: 99.0 °
Period: 102.7 minutes
Semi major axis: 7265 km
RCS: 0.0101 m2 (small)
Launch date: May 10, 1999
Source: People's Republic of China (PRC)
Launch site: Taiyaun Space Center, China (TSC)

Note: This is SATELLITE DEBRIS
aabbcc
Your satellite tracking list
Your tracking list is empty




NASA's NSSDC Master Catalog

Two Line Element Set (TLE):
1 31185U 99025BJP 18050.87224733 +.00000402 +00000-0 +29128-3 0  9994
2 31185 099.0014 084.5237 0042070 128.0571 232.4402 14.01772588558704
Source of the keplerian elements: AFSPC